Stündliche Wetter Bolshie Kalmyki

Heute, 26 November, Donnerstag

Zeit Temperatur Niederschläge Wind Luftdruck Luftfeuchtigkeit
00:00 -2°C° 0 mm 2 m/S 741 mmHg 91%
01:00 -2°C° 0 mm 2 m/S 741 mmHg 91%
02:00 -3°C° 0 mm 2 m/S 742 mmHg 90%
03:00 -3°C° 0 mm 2 m/S 742 mmHg 90%
04:00 -3°C° 0 mm 2 m/S 742 mmHg 89%
05:00 -1°C° 0 mm 1 m/S 742 mmHg 88%
06:00 -1°C° 0 mm 1 m/S 742 mmHg 87%
07:00 -1°C° 0 mm 1 m/S 743 mmHg 87%
08:00 -1°C° 0 mm 1 m/S 743 mmHg 87%
09:00 -1°C° 0 mm 1 m/S 743 mmHg 87%
10:00 -2°C° 0 mm 2 m/S 743 mmHg 84%
11:00 -2°C° 0 mm 2 m/S 742 mmHg 81%
12:00 -1°C° 0 mm 2 m/S 742 mmHg 78%
13:00 -1°C° 0 mm 3 m/S 742 mmHg 77%
14:00 -1°C° 0 mm 3 m/S 742 mmHg 77%
15:00 -2°C° 0 mm 4 m/S 742 mmHg 77%
16:00 -2°C° 0 mm 4 m/S 741 mmHg 82%
17:00 -2°C° 0 mm 4 m/S 741 mmHg 86%
18:00 -2°C° 0 mm 5 m/S 740 mmHg 91%
19:00 -2°C° 0.3 mm 5 m/S 740 mmHg 93%
20:00 -2°C° 0.3 mm 5 m/S 740 mmHg 94%
21:00 -1°C° 0.3 mm 5 m/S 740 mmHg 96%
22:00 -1°C° 0.3 mm 5 m/S 739 mmHg 96%
23:00 -1°C° 0.3 mm 5 m/S 739 mmHg 96%

Morgen, 27 November, Freitag

Zeit Temperatur Niederschläge Wind Luftdruck Luftfeuchtigkeit
00:00 0°C° 0.3 mm 5 m/S 738 mmHg 96%
01:00 0°C° 0 mm 5 m/S 738 mmHg 95%
02:00 0°C° 0 mm 5 m/S 738 mmHg 95%
03:00 0°C° 0 mm 5 m/S 738 mmHg 94%
04:00 -1°C° 0 mm 6 m/S 737 mmHg 91%
05:00 -1°C° 0 mm 6 m/S 737 mmHg 89%
06:00 -2°C° 0 mm 6 m/S 736 mmHg 87%
07:00 -2°C° 0 mm 6 m/S 736 mmHg 87%
08:00 -2°C° 0 mm 6 m/S 736 mmHg 87%
09:00 -3°C° 0 mm 6 m/S 736 mmHg 87%
10:00 -3°C° 0 mm 6 m/S 736 mmHg 86%
11:00 -2°C° 0 mm 6 m/S 736 mmHg 85%
12:00 -2°C° 0 mm 6 m/S 736 mmHg 84%
13:00 -2°C° 0 mm 6 m/S 736 mmHg 84%
14:00 -2°C° 0 mm 6 m/S 736 mmHg 85%
15:00 -1°C° 0 mm 5 m/S 736 mmHg 85%
16:00 -2°C° 0.2 mm 5 m/S 736 mmHg 89%
17:00 -2°C° 0.2 mm 5 m/S 736 mmHg 93%
18:00 -2°C° 0.2 mm 4 m/S 736 mmHg 97%
19:00 -2°C° 0.1 mm 4 m/S 736 mmHg 97%
20:00 -2°C° 0.1 mm 4 m/S 736 mmHg 96%
21:00 -1°C° 0.1 mm 4 m/S 736 mmHg 96%
22:00 -1°C° 0 mm 4 m/S 736 mmHg 97%
23:00 0°C° 0 mm 3 m/S 737 mmHg 97%

übermorgen, 28 November, Samstag

Zeit Temperatur Niederschläge Wind Luftdruck Luftfeuchtigkeit
00:00 0°C° 0 mm 3 m/S 737 mmHg 97%
01:00 0°C° 0 mm 3 m/S 737 mmHg 97%
02:00 +1°C° 0 mm 2 m/S 737 mmHg 98%
03:00 +1°C° 0 mm 2 m/S 738 mmHg 98%
04:00 +1°C° 0.1 mm 2 m/S 738 mmHg 98%
05:00 -1°C° 0.1 mm 2 m/S 738 mmHg 98%
06:00 -1°C° 0.1 mm 3 m/S 739 mmHg 98%
07:00 0°C° 0.1 mm 3 m/S 739 mmHg 98%
08:00 0°C° 0.1 mm 3 m/S 739 mmHg 98%
09:00 0°C° 0.1 mm 3 m/S 740 mmHg 98%
10:00 0°C° 0 mm 3 m/S 740 mmHg 98%
11:00 0°C° 0 mm 3 m/S 741 mmHg 97%
12:00 0°C° 0 mm 3 m/S 742 mmHg 97%
13:00 0°C° 0 mm 3 m/S 742 mmHg 96%
14:00 +1°C° 0 mm 2 m/S 742 mmHg 94%
15:00 +1°C° 0 mm 2 m/S 743 mmHg 92%
16:00 +1°C° 0 mm 2 m/S 743 mmHg 92%
17:00 -1°C° 0 mm 2 m/S 743 mmHg 91%
18:00 +1°C° 0 mm 1 m/S 744 mmHg 90%
19:00 0°C° 0 mm 1 m/S 744 mmHg 90%
20:00 0°C° 0 mm 1 m/S 745 mmHg 90%
21:00 0°C° 0 mm 1 m/S 745 mmHg 91%
22:00 0°C° 0 mm 1 m/S 745 mmHg 91%
23:00 0°C° 0 mm 1 m/S 745 mmHg 91%

29 November, Sonntag

Zeit Temperatur Niederschläge Wind Luftdruck Luftfeuchtigkeit
00:00 0°C° 0 mm 1 m/S 746 mmHg 92%
01:00 0°C° 0 mm 1 m/S 746 mmHg 93%
02:00 -2°C° 0 mm 2 m/S 746 mmHg 94%
03:00 -1°C° 0 mm 2 m/S 746 mmHg 95%
04:00 -1°C° 0.2 mm 3 m/S 746 mmHg 96%
05:00 0°C° 0.2 mm 3 m/S 746 mmHg 97%
06:00 -1°C° 0.2 mm 4 m/S 746 mmHg 98%
07:00 -1°C° 0.1 mm 4 m/S 746 mmHg 97%
08:00 -1°C° 0.1 mm 4 m/S 746 mmHg 97%
09:00 -1°C° 0.1 mm 4 m/S 746 mmHg 97%
10:00 -1°C° 0 mm 5 m/S 746 mmHg 95%
11:00 -1°C° 0 mm 5 m/S 747 mmHg 94%
12:00 -2°C° 0 mm 6 m/S 747 mmHg 92%
13:00 -1°C° 0 mm 5 m/S 747 mmHg 93%
14:00 0°C° 0 mm 5 m/S 747 mmHg 94%
15:00 0°C° 0 mm 4 m/S 746 mmHg 94%
16:00 0°C° 0 mm 5 m/S 747 mmHg 94%
17:00 0°C° 0 mm 5 m/S 747 mmHg 94%
18:00 0°C° 0 mm 5 m/S 747 mmHg 94%
19:00 0°C° 0 mm 5 m/S 747 mmHg 94%
20:00 -1°C° 0 mm 6 m/S 747 mmHg 93%
21:00 -1°C° 0 mm 6 m/S 747 mmHg 93%
22:00 -1°C° 0 mm 6 m/S 747 mmHg 93%
23:00 -1°C° 0 mm 6 m/S 747 mmHg 93%

30 November, Montag

Zeit Temperatur Niederschläge Wind Luftdruck Luftfeuchtigkeit
00:00 -1°C° 0 mm 6 m/S 747 mmHg 92%
01:00 -1°C° 0 mm 6 m/S 747 mmHg 92%
02:00 -1°C° 0 mm 6 m/S 747 mmHg 92%
03:00 -1°C° 0 mm 6 m/S 746 mmHg 92%
04:00 -1°C° 0 mm 6 m/S 746 mmHg 91%
05:00 -1°C° 0 mm 6 m/S 746 mmHg 91%
06:00 -1°C° 0 mm 6 m/S 746 mmHg 91%
07:00 -1°C° 0 mm 6 m/S 746 mmHg 90%
08:00 -1°C° 0 mm 6 m/S 746 mmHg 90%
09:00 -1°C° 0 mm 6 m/S 746 mmHg 90%
10:00 -1°C° 0 mm 6 m/S 746 mmHg 90%
11:00 -1°C° 0 mm 6 m/S 746 mmHg 90%
12:00 -1°C° 0 mm 6 m/S 746 mmHg 89%
13:00 -1°C° 0.1 mm 6 m/S 746 mmHg 90%
14:00 -1°C° 0.1 mm 6 m/S 746 mmHg 90%
15:00 -1°C° 0.1 mm 6 m/S 746 mmHg 90%
16:00 +1°C° 0.2 mm 6 m/S 746 mmHg 91%
17:00 +1°C° 0.2 mm 6 m/S 746 mmHg 91%
18:00 +1°C° 0.2 mm 6 m/S 746 mmHg 91%
19:00 +1°C° 0.3 mm 6 m/S 746 mmHg 92%
20:00 +1°C° 0.3 mm 6 m/S 746 mmHg 92%
21:00 +1°C° 0.3 mm 6 m/S 747 mmHg 92%
22:00 -1°C° 0.5 mm 6 m/S 747 mmHg 93%
23:00 0°C° 0.5 mm 5 m/S 747 mmHg 93%

1 Dezember, Dienstag

Zeit Temperatur Niederschläge Wind Luftdruck Luftfeuchtigkeit
00:00 0°C° 0.5 mm 5 m/S 747 mmHg 94%
01:00 0°C° 0.4 mm 4 m/S 747 mmHg 95%
02:00 0°C° 0.4 mm 3 m/S 747 mmHg 96%
03:00 0°C° 0.4 mm 3 m/S 747 mmHg 96%
04:00 +1°C° 0.1 mm 2 m/S 747 mmHg 96%
05:00 +1°C° 0.1 mm 2 m/S 747 mmHg 95%
06:00 -1°C° 0.1 mm 2 m/S 747 mmHg 94%
07:00 -1°C° 0 mm 2 m/S 748 mmHg 93%
08:00 -1°C° 0 mm 2 m/S 748 mmHg 93%
09:00 0°C° 0 mm 1 m/S 748 mmHg 92%
10:00 0°C° 0 mm 1 m/S 748 mmHg 90%
11:00 +1°C° 0 mm 1 m/S 748 mmHg 89%
12:00 +1°C° 0 mm 1 m/S 748 mmHg 87%
13:00 +1°C° 0 mm 1 m/S 748 mmHg 88%
14:00 +1°C° 0 mm 1 m/S 748 mmHg 90%
15:00 +1°C° 0 mm 1 m/S 748 mmHg 91%
16:00 +1°C° 0 mm 1 m/S 748 mmHg 92%
17:00 +1°C° 0 mm 1 m/S 748 mmHg 93%
18:00 +1°C° 0 mm 1 m/S 748 mmHg 95%
19:00 +1°C° 0 mm 1 m/S 748 mmHg 95%
20:00 +1°C° 0 mm 1 m/S 748 mmHg 95%
21:00 +1°C° 0 mm 1 m/S 748 mmHg 95%
22:00 +1°C° 0 mm 1 m/S 748 mmHg 95%
23:00 +1°C° 0 mm 1 m/S 748 mmHg 94%
Mehr zeigen

Wir brauchen deine Erlaubnis

Meteoprog und unser Service Anbieter werden persönliche Daten aufbewahren, so wie Cookies, Geräte Bezeichnung oder ähnliche Technologien von deinem Gerät und Prozess, so wie Persönliche Daten Inhalte und Werbungen, genauso wie social Media und den Verkehr zu analysieren.

  • Aufbewahrung und/oder Zugang zu deiner Geräte Informationen.

    Cookies, Geräte Bezeichnung oder andere Informationen, können aufbewahrt oder Zugang zu deinem Gerät erhalten, für den Grund, der oben angegeben wird.

  • Personalisierte Werbung und Inhalte, Messungen, Einblick in das Publikum und Produkt Entwicklung.

    Werbungen und Inhalte können personalisiert werden, basierend auf ein Profil. Mehr Daten können besser personalisierte Werbungen und Inhalte hinzufügen. Werbung und Inhalte können gezeigt und gemessen werden. Einblicke über das Publikum, welche die Werbung gesehen haben und den Inhalt, können abgeleitet werden. So wie Daten können genutzt werden, um es zu verbessern oder die Benutzer Erfahrung zu verbessern das System und die Software.

Wenn du “Ich stimme zu” klickst, erlaubst du uns, die Cookies zu benutzen die Geräte Bezeichnung, den Web oder ähnliche Technologien zu benutzen. Deine Settings, können in deinem Gerät bei deinem Browser geändert werden.

Für den bestimmten Zweck, berechtigten Interessen beruhen darauf, mehr als auf den Inhalt. Du kannst mehr darüber in unseren Privaten und Cookie Politik lesen.